| time (UTC) | temp C | wind direction | speed KPH | gust KPH | rain 1hr cm | rain 24hr cm | rain mn cm | humidity % | barometer mb |
| 20260507154516 | 12 | 325 | 0.0 | 11.3 | 0.00 | 0.15 | 0.13 | 64 | 1012.1 |
| 20260507153023 | 12 | 352 | 4.8 | 14.5 | 0.00 | 0.15 | 0.13 | 60 | 1012.3 |
| 20260507151507 | 12 | 5 | 3.2 | 9.7 | 0.00 | 0.15 | 0.13 | 63 | 1012.5 |
| 20260507150009 | 12 | 5 | 4.8 | 12.9 | 0.00 | 0.15 | 0.13 | 62 | 1012.2 |
| 20260507144510 | 12 | 342 | 4.8 | 11.3 | 0.00 | 0.15 | 0.13 | 64 | 1012.5 |
| 20260507143007 | 12 | 342 | 4.8 | 9.7 | 0.00 | 0.18 | 0.13 | 65 | 1012.7 |
| 20260507141504 | 12 | 360 | 1.6 | 8.0 | 0.00 | 0.20 | 0.13 | 67 | 1013.0 |
| 20260507140011 | 12 | 328 | 3.2 | 14.5 | 0.00 | 0.28 | 0.13 | 67 | 1012.8 |
| 20260507134511 | 12 | 342 | 4.8 | 12.9 | 0.00 | 0.30 | 0.13 | 71 | 1012.9 |
| 20260507133003 | 12 | 315 | 3.2 | 20.9 | 0.00 | 0.30 | 0.13 | 72 | 1012.8 |
| 20260507131503 | 12 | 327 | 6.4 | 16.1 | 0.00 | 0.30 | 0.13 | 81 | 1012.6 |
| 20260507130006 | 12 | 343 | 3.2 | 14.5 | 0.00 | 0.33 | 0.13 | 83 | 1012.6 |
| 20260507124508 | 12 | 344 | 4.8 | 9.7 | 0.00 | 0.36 | 0.13 | 84 | 1012.7 |
| 20260507123003 | 12 | 5 | 3.2 | 12.9 | 0.00 | 0.38 | 0.13 | 84 | 1012.7 |
| 20260507121504 | 12 | 332 | 6.4 | 12.9 | 0.00 | 0.38 | 0.13 | 84 | 1012.5 |
| 20260507120005 | 12 | 301 | 1.6 | 12.9 | 0.00 | 0.38 | 0.13 | 86 | 1012.2 |
| 20260507114503 | 12 | 323 | 1.6 | 9.7 | 0.00 | 0.38 | 0.13 | 85 | 1012.0 |
| 20260507113011 | 12 | 315 | 4.8 | 14.5 | 0.00 | 0.38 | 0.13 | 85 | 1012.0 |
| 20260507111507 | 12 | 270 | 3.2 | 11.3 | 0.00 | 0.38 | 0.13 | 86 | 1011.6 |
| 20260507110004 | 12 | 328 | 3.2 | 8.0 | 0.00 | 0.38 | 0.13 | 87 | 1011.8 |
| 20260507104505 | 12 | 360 | 1.6 | 14.5 | 0.00 | 0.38 | 0.13 | 87 | 1011.8 |
| 20260507103004 | 12 | 320 | 3.2 | 9.7 | 0.00 | 0.38 | 0.13 | 88 | 1011.8 |
| 20260507101504 | 12 | 331 | 1.6 | 8.0 | 0.00 | 0.38 | 0.13 | 89 | 1011.6 |
| 20260507100003 | 12 | 324 | 1.6 | 8.0 | 0.00 | 0.38 | 0.13 | 89 | 1011.5 |
| 20260507094506 | 12 | 352 | 0.0 | 4.8 | 0.00 | 0.38 | 0.13 | 88 | 1011.7 |
| 20260507093008 | 12 | 332 | 1.6 | 6.4 | 0.00 | 0.38 | 0.13 | 89 | 1011.7 |
| 20260507091511 | 12 | 333 | 0.0 | 4.8 | 0.00 | 0.38 | 0.13 | 88 | 1011.4 |
| 20260507090007 | 12 | 352 | 1.6 | 8.0 | 0.00 | 0.38 | 0.13 | 87 | 1011.3 |
| 20260507084503 | 12 | 299 | 0.0 | 8.0 | 0.00 | 0.38 | 0.13 | 88 | 1011.1 |
| 20260507083007 | 12 | 310 | 3.2 | 9.7 | 0.00 | 0.38 | 0.13 | 87 | 1011.2 |
| 20260507081516 | 12 | 343 | 3.2 | 8.0 | 0.03 | 0.38 | 0.13 | 88 | 1011.3 |
| 20260507080015 | 12 | 279 | 3.2 | 12.9 | 0.03 | 0.38 | 0.13 | 88 | 1011.4 |
| 20260507074510 | 12 | 21 | 4.8 | 14.5 | 0.03 | 0.38 | 0.13 | 88 | 1010.6 |
| 20260507073003 | 12 | 342 | 1.6 | 14.5 | 0.03 | 0.38 | 0.13 | 89 | 1010.5 |
| 20260507071504 | 12 | 12 | 4.8 | 12.9 | 0.00 | 0.36 | 0.10 | 89 | 1010.4 |
| 20260507070013 | 13 | 331 | 3.2 | 14.5 | 0.00 | 0.36 | 0.10 | 90 | 1010.6 |
| 20260507064533 | 13 | 330 | 1.6 | 17.7 | 0.00 | 0.36 | 0.10 | 90 | 1010.7 |
| 20260507063022 | 13 | 344 | 4.8 | 17.7 | 0.00 | 0.36 | 0.10 | 91 | 1010.3 |
| 20260507061508 | 14 | 48 | 4.8 | 12.9 | 0.03 | 0.36 | 0.10 | 92 | 1010.7 |
| 20260507060018 | 14 | 352 | 8.0 | 16.1 | 0.05 | 0.36 | 0.10 | 93 | 1010.2 |
| 20260507054507 | 14 | 340 | 0.0 | 6.4 | 0.05 | 0.36 | 0.10 | 92 | 1008.8 |
| 20260507053025 | 15 | 337 | 3.2 | 9.7 | 0.05 | 0.36 | 0.10 | 91 | 1009.1 |
| 20260507051522 | 15 | 293 | 1.6 | 12.9 | 0.05 | 0.33 | 0.08 | 91 | 1009.9 |
| 20260507050008 | 15 | 5 | 6.4 | 17.7 | 0.05 | 0.30 | 0.05 | 91 | 1010.6 |
| 20260507044518 | 16 | 334 | 6.4 | 19.3 | 0.08 | 0.30 | 0.05 | 90 | 1010.6 |
| 20260507043014 | 17 | 352 | 4.8 | 12.9 | 0.08 | 0.30 | 0.05 | 91 | 1009.8 |
| 20260507041523 | 17 | 27 | 0.0 | 0.0 | 0.05 | 0.28 | 0.03 | 91 | 1010.1 |
| 20260507040010 | 17 | 273 | 0.0 | 0.0 | 0.03 | 0.25 | 0.00 | 90 | 1010.0 |
| 20260507034511 | 17 | 273 | 0.0 | 0.0 | 0.00 | 0.23 | 0.23 | 89 | 1009.9 |
| 20260507033020 | 17 | 273 | 0.0 | 0.0 | 0.00 | 0.23 | 0.23 | 88 | 1009.6 |
| 20260507031525 | 17 | 273 | 0.0 | 0.0 | 0.00 | 0.23 | 0.23 | 88 | 1009.4 |
| 20260507030005 | 17 | 273 | 0.0 | 0.0 | 0.00 | 0.23 | 0.23 | 88 | 1009.8 |
| 20260507024509 | 18 | 273 | 0.0 | 0.0 | 0.00 | 0.23 | 0.23 | 88 | 1009.5 |
| 20260507023008 | 18 | 182 | 0.0 | 0.0 | 0.00 | 0.23 | 0.23 | 87 | 1009.5 |
| 20260507021508 | 18 | 182 | 0.0 | 0.0 | 0.00 | 0.23 | 0.23 | 86 | 1008.7 |
| 20260507020024 | 18 | 182 | 0.0 | 0.0 | 0.00 | 0.23 | 0.23 | 84 | 1009.0 |
| 20260507014515 | 19 | 182 | 0.0 | 1.6 | 0.00 | 0.23 | 0.23 | 84 | 1009.1 |
| 20260507013020 | 19 | 167 | 0.0 | 6.4 | 0.00 | 0.23 | 0.23 | 83 | 1009.2 |
| 20260507011518 | 19 | 137 | 3.2 | 9.7 | 0.00 | 0.23 | 0.23 | 82 | 1009.2 |
| 20260507010013 | 19 | 139 | 4.8 | 8.0 | 0.00 | 0.23 | 0.23 | 82 | 1009.2 |
| 20260507004517 | 19 | 148 | 3.2 | 12.9 | 0.00 | 0.23 | 0.23 | 81 | 1009.0 |
| 20260507003003 | 20 | 136 | 3.2 | 12.9 | 0.00 | 0.23 | 0.23 | 81 | 1008.7 |
| 20260507001523 | 20 | 126 | 4.8 | 19.3 | 0.00 | 0.23 | 0.23 | 79 | 1008.8 |
| 20260507000027 | 20 | 153 | 8.0 | 17.7 | 0.00 | 0.23 | 0.23 | 78 | 1008.8 |
| 20260506234534 | 20 | 156 | 8.0 | 17.7 | 0.00 | 0.23 | 0.23 | 79 | 1008.9 |
| 20260506233015 | 20 | 123 | 4.8 | 14.5 | 0.00 | 0.23 | 0.23 | 79 | 1008.4 |
| 20260506231528 | 20 | 145 | 6.4 | 14.5 | 0.00 | 0.23 | 0.23 | 78 | 1008.2 |
| 20260506230007 | 20 | 145 | 8.0 | 17.7 | 0.00 | 0.23 | 0.23 | 78 | 1008.6 |
| 20260506224528 | 20 | 132 | 6.4 | 20.9 | 0.00 | 0.23 | 0.23 | 77 | 1008.4 |
| 20260506223037 | 21 | 150 | 9.7 | 25.7 | 0.00 | 0.23 | 0.23 | 77 | 1008.4 |
| 20260506221511 | 21 | 150 | 9.7 | 27.4 | 0.00 | 0.23 | 0.23 | 75 | 1008.6 |
| 20260506220004 | 21 | 157 | 16.1 | 35.4 | 0.00 | 0.23 | 0.23 | 75 | 1008.4 |
| 20260506214503 | 21 | 165 | 14.5 | 29.0 | 0.00 | 0.23 | 0.23 | 74 | 1008.2 |
| 20260506213003 | 21 | 132 | 14.5 | 30.6 | 0.00 | 0.23 | 0.23 | 74 | 1008.3 |
| 20260506211508 | 21 | 153 | 19.3 | 30.6 | 0.00 | 0.23 | 0.23 | 75 | 1008.3 |
| 20260506210007 | 20 | 161 | 6.4 | 30.6 | 0.00 | 0.23 | 0.23 | 76 | 1008.3 |
| 20260506204506 | 20 | 161 | 17.7 | 25.7 | 0.00 | 0.23 | 0.23 | 76 | 1008.3 |
| 20260506203003 | 20 | 166 | 14.5 | 25.7 | 0.00 | 0.23 | 0.23 | 77 | 1008.4 |
| 20260506201503 | 20 | 132 | 17.7 | 29.0 | 0.00 | 0.23 | 0.23 | 77 | 1008.4 |
| 20260506200007 | 19 | 105 | 14.5 | 30.6 | 0.00 | 0.23 | 0.23 | 78 | 1008.5 |
| 20260506194505 | 19 | 146 | 8.0 | 24.1 | 0.00 | 0.23 | 0.23 | 80 | 1008.4 |
| 20260506193004 | 18 | 132 | 3.2 | 14.5 | 0.00 | 0.23 | 0.23 | 82 | 1008.6 |
| 20260506191504 | 18 | 130 | 9.7 | 33.8 | 0.00 | 0.23 | 0.23 | 82 | 1009.1 |
| 20260506190004 | 18 | 159 | 9.7 | 20.9 | 0.00 | 0.23 | 0.23 | 83 | 1009.2 |
| 20260506184507 | 18 | 156 | 11.3 | 19.3 | 0.00 | 0.23 | 0.23 | 83 | 1009.5 |
| 20260506183006 | 18 | 124 | 8.0 | 22.5 | 0.00 | 0.23 | 0.23 | 83 | 1009.5 |
| 20260506181503 | 18 | 164 | 11.3 | 22.5 | 0.00 | 0.23 | 0.23 | 83 | 1009.7 |
| 20260506180011 | 18 | 142 | 9.7 | 22.5 | 0.00 | 0.23 | 0.23 | 84 | 1009.7 |
| 20260506174511 | 17 | 140 | 11.3 | 22.5 | 0.00 | 0.23 | 0.23 | 84 | 1009.6 |
| 20260506173006 | 17 | 182 | 9.7 | 25.7 | 0.00 | 0.23 | 0.23 | 85 | 1009.9 |
| 20260506171507 | 17 | 124 | 14.5 | 25.7 | 0.00 | 0.23 | 0.23 | 85 | 1009.9 |
| 20260506170005 | 17 | 144 | 9.7 | 25.7 | 0.00 | 0.23 | 0.23 | 85 | 1010.0 |
| 20260506164512 | 17 | 226 | 6.4 | 19.3 | 0.00 | 0.23 | 0.23 | 86 | 1010.0 |
| 20260506163011 | 17 | 131 | 8.0 | 17.7 | 0.00 | 0.23 | 0.23 | 87 | 1010.4 |
| 20260506161512 | 16 | 125 | 6.4 | 25.7 | 0.00 | 0.23 | 0.23 | 87 | 1010.5 |
| 20260506160008 | 16 | 169 | 11.3 | 22.5 | 0.00 | 0.23 | 0.23 | 88 | 1010.7 |